{"data":{"norad_id":63572,"intl_designator":"2025-076D","name":"STARLINK-33739","alt_names":[],"object_type":"PAYLOAD","status":"ACTIVE","operator":null,"country":"US","launch_date":"2025-04-14","launch_site_code":"AFETR","launch_vehicle":null,"mission":null,"orbit_class":"UNKNOWN","rcs_meters":null,"size_class":null,"mass_kg":null,"dimensions":null,"purposes":["comms"],"wikipedia_slug":null,"has_3d_model":false,"image_url":null,"decayed_at":null,"tle_current":{"epoch":"2026-09-18T04:02:42.165312Z","epoch_age_seconds":354032,"freshness":"STALE","line1":"1 63572U 25076D   26261.16854358  .00009270  00000+0  34594-3 0  9995","line2":"2 63572  43.0004 315.0196 0001602 278.4000  81.6670 15.27582898 81261","mean_motion":15.27582898,"eccentricity":0.0001602,"inclination_deg":43.0004,"raan_deg":315.0196,"arg_perigee_deg":278.4,"mean_anomaly_deg":81.667,"bstar":0.00034594,"rev_number":8126,"period_min":94.266569878815,"perigee_km":481.94125777639,"apogee_km":484.13957902125,"semimajor_km":6861.1774183988,"source":"CELESTRAK","updated_at":"2026-09-21T09:00:35.045236Z"}}}